Flag for China Weather past 2 weeks in Langfang, Hebei, China

19 °F


Feels Like: 1 °F
Forecast: 10 / 23 °F
Wind: 26 mph from Northwest

Location: Beijing Airport

Current Time: Nov 25, 2015 at 7:26:19 PM

Latest Report: Nov 25, 2015 at 7:00 PM

Visibility: 10 mi

Pressure: 30.51 "Hg

Humidity: 42%

Dew point: 0 °F

Location of LangfangLocation

Historic Weather in Langfang — Graph


Langfang temperature yesterday

Maximum temperature yesterday: 25 °F (at 1:00 PM)
Minimum temperature yesterday: 18 °F (at 4:00 AM)
Average temperature yesterday: 21 °F

Past Weeks' High & Low Weather Summary

High55 °F (Nov 15, 12:00 PM)100% (Nov 11, 12:00 AM)30.80 "Hg (Nov 11, 12:00 AM)
Low14 °F (Nov 25, 7:30 AM)35% (Nov 17, 1:00 PM)29.98 "Hg (Nov 14, 1:00 PM)
Average37 °F84%30.37 "Hg
* Reported Nov 10 6:00 PM — Nov 25 6:00 PM, Langfang, Weather by CustomWeather, © 2015

Note: Actual official high and low records may vary slightly from our data, if they occured in-between our weather recording intervals... More about our weather records


Langfang weather history for previous 24 hours

Time TempWeatherWind HumidityBarometerVisibility
6:00 PM
Wed, Nov 25
19 °FClear.20 mph42%30.51 "Hg10 mi
5:30 PM19 °FClear.20 mph42%30.48 "Hg10 mi
5:00 PM21 °FClear.22 mph42%30.48 "Hg10 mi
4:30 PM21 °FSunny.24 mph42%30.45 "Hg10 mi
4:00 PM23 °FSunny.26 mph39%30.45 "Hg10 mi
3:30 PM23 °FSunny.29 mph39%30.42 "Hg10 mi
3:00 PM23 °FSunny.26 mph46%30.42 "Hg10 mi
2:00 PM27 °FSunny.26 mph50%30.39 "Hg10 mi
1:30 PM27 °FSunny.22 mph59%30.39 "Hg10 mi
1:00 PM28 °FSunny.10 mph59%30.39 "Hg10 mi
12:30 PM27 °FSunny.6 mph69%30.39 "Hg10 mi
12:00 PM27 °FSunny.6 mph64%30.42 "Hg10 mi
11:30 AM25 °FPassing clouds.6 mph69%30.42 "HgN/A
11:00 AM23 °FSunny.8 mph80%30.42 "Hg10 mi
10:30 AM21 °FPassing clouds.6 mph80%30.45 "HgN/A
10:00 AM21 °FSunny.6 mph80%30.45 "Hg10 mi
9:30 AM19 °FSunny.3 mph86%30.45 "Hg10 mi
9:00 AM19 °FSunny.6 mph86%30.45 "Hg10 mi
8:30 AM18 °FSunny.6 mph86%30.42 "Hg10 mi
7:30 AM14 °FSunny.6 mph92%30.42 "Hg10 mi
7:00 AM16 °FClear.3 mph93%30.42 "Hg5 mi
6:30 AM16 °FClear.3 mph93%30.42 "Hg5 mi
6:00 AM18 °FClear.3 mph86%30.42 "Hg5 mi
5:30 AM19 °FPassing clouds.3 mph86%30.42 "Hg5 mi
4:30 AM19 °FOvercast.3 mph93%30.45 "Hg5 mi
4:00 AM21 °FLight snow. Overcast.3 mph86%30.45 "Hg5 mi
3:30 AM21 °FPassing clouds.3 mph86%30.45 "Hg5 mi
3:00 AM19 °FPassing clouds.6 mph93%30.48 "Hg5 mi
2:30 AM19 °FPassing clouds.3 mph93%30.48 "Hg5 mi
2:00 AM19 °FPassing clouds.1 mph93%30.51 "HgN/A
1:30 AM18 °FPassing clouds.3 mph93%30.51 "HgN/A
1:00 AM18 °FPassing clouds.1 mph93%30.51 "HgN/A
12:30 AM18 °FPassing clouds.1 mph93%30.54 "HgN/A
12:00 AM18 °FPassing clouds.1 mph93%30.54 "HgN/A
11:30 PM
Tue, Nov 24
18 °FPassing clouds.No wind93%30.54 "HgN/A
11:00 PM18 °FPassing clouds.1 mph93%30.54 "HgN/A
10:30 PM19 °FPassing clouds.1 mph93%30.57 "HgN/A
10:00 PM19 °FLight snow. Passing clouds.3 mph93%30.57 "HgN/A
9:30 PM19 °FLight snow. Passing clouds.1 mph86%30.60 "HgN/A
9:00 PM18 °FLight snow. Passing clouds.1 mph93%30.60 "HgN/A
8:30 PM19 °FLight snow. Passing clouds.1 mph86%30.60 "HgN/A
8:00 PM19 °FPassing clouds.1 mph93%30.60 "HgN/A
7:30 PM18 °FPassing clouds.3 mph93%30.63 "HgN/A
7:00 PM18 °FPassing clouds.1 mph93%30.63 "HgN/A
Weather by CustomWeather, © 2015

See weather overviewHow to use our weather pages